Location: Baili�vre
(50.0696°N, 4.2409°E)
Time: 15:32:32
(UTC+00:00)

Cosmos 1470 Rocket - Pass Details

Date: 08 August 2020
Orbit: 603 x 634 km, 82.5° (Epoch: 19 September)

Event Time Altitude Azimuth Distance (km) Brightness Sun altitude
Exits shadow 21:19:32 19° 189° (S) 1,498 5.1 -16.4°
Maximum altitude 21:22:43 89° 274° (W) 630 3.5 -16.7°
Drops below altitude 10° 21:27:09 10° 10° (N) 1,994 6.8 -17.1°
Sets 21:29:22 0° 11° (N) 2,899 7.7 -17.4°
